Weather History for Paynesville, MN

Change the Weather History Date:

Friday, February 1, 2013

  Actual Average (KLJF) Record (KLJF)
Temperature  
Mean Temperature -8 °F -  
Max Temperature 0 °F 23 °F 45 °F (1987)
Min Temperature -17 °F 2 °F -31 °F (1951)
Degree Days  
Heating Degree Days 74    
Moisture  
Dew Point -14 °F    
Average Humidity 74    
Maximum Humidity 83    
Minimum Humidity 63    
Precipitation  
Precipitation 0.00 in - - ()
Sea Level Pressure  
Sea Level Pressure 30.14 in    
Wind  
Wind Speed 5 mph (SE)    
Max Wind Speed 9 mph    
Max Gust Speed -    
Visibility 8 miles    
Events Snow    
Averages and records for this station are not official NWS values.
T = Trace of Precipitation, MM = Missing Value Source: NWS Daily Summary

Daily Weather History Graph

Daily Weather History Graph

Search for Another Location

Airport:

Trip Planner

Search our weather history database for the weather conditions in past years. The results will help you decide how hot, cold, wet, or windy it might be!

Date:

Astronomy

Feb. 01, 2013 Rise Set
Actual Time 7:39 AM CST 5:26 PM CST
Civil Twilight 7:07 AM CST 5:57 PM CST
Nautical Twilight 6:32 AM CST 6:33 PM CST
Astronomical Twilight 5:57 AM CST 7:07 PM CST
Moon 11:55 PM CST (2/1) 9:53 AM CST (2/1)
Length of Visible Light 10h 50m
Length of Day
9h 47m
Waning Gibbous, 70% of the Moon is Illuminated
Feb 1
Waning Gibbous
Feb 3
Last Quarter
Feb 10
New
Feb 17
First Quarter
Feb 25
Full

Hourly Weather History & Observations

Time (CST) Temp. Windchill Dew Point Humidity Pressure Visibility Wind Dir Wind Speed Gust Speed Precip Events Conditions
12:13 AM -13.0 °F -28.6 °F -19.5 °F 73% 30.26 in 10.0 mi West 6.9 mph - N/A   Clear
12:33 AM -13.4 °F -30.4 °F -19.8 °F 73% 30.26 in 10.0 mi West 8.1 mph - N/A   Clear
12:53 AM -13.7 °F -30.9 °F -20.0 °F 73% 30.26 in 10.0 mi West 8.1 mph - N/A   Clear
1:13 AM -13.9 °F -29.7 °F -20.4 °F 73% 30.25 in 10.0 mi West 6.9 mph - N/A   Clear
1:33 AM -14.3 °F -28.5 °F -20.7 °F 73% 30.25 in 10.0 mi West 5.8 mph - N/A   Clear
1:53 AM -14.8 °F -24.8 °F -21.5 °F 72% 30.25 in 10.0 mi WSW 3.5 mph - N/A   Clear
2:13 AM -15.2 °F -29.5 °F -21.8 °F 72% 30.25 in 10.0 mi WSW 5.8 mph - N/A   Clear
2:33 AM -15.9 °F -28.4 °F -22.0 °F 74% 30.26 in 10.0 mi WSW 4.6 mph - N/A   Clear
3:13 AM -16.1 °F -32.3 °F -22.2 °F 74% 30.26 in 10.0 mi West 6.9 mph - N/A   Clear
3:33 AM -16.2 °F -30.8 °F -22.4 °F 74% 30.26 in 10.0 mi WSW 5.8 mph - N/A   Clear
4:13 AM -16.4 °F -32.7 °F -22.5 °F 74% 30.27 in 10.0 mi WSW 6.9 mph - N/A   Clear
4:33 AM -16.6 °F -31.3 °F -22.9 °F 73% 30.27 in 10.0 mi WSW 5.8 mph - N/A   Clear
4:53 AM -16.6 °F -31.3 °F -22.7 °F 74% 30.26 in 10.0 mi West 5.8 mph - N/A   Clear
5:13 AM -16.8 °F -31.5 °F -22.9 °F 74% 30.26 in 10.0 mi West 5.8 mph - N/A   Clear
5:33 AM -17.0 °F - -22.9 °F 74% 30.26 in 10.0 mi Calm Calm - N/A   Clear
5:53 AM -17.0 °F - -22.9 °F 74% 30.25 in 10.0 mi Calm Calm - N/A   Clear
6:13 AM -17.3 °F - -23.1 °F 75% 30.25 in 10.0 mi Calm Calm - N/A   Clear
6:33 AM -17.1 °F - -23.1 °F 74% 30.25 in 10.0 mi Calm Calm - N/A   Clear
6:53 AM -17.1 °F - -23.1 °F 74% 30.24 in 10.0 mi Calm Calm - N/A   Clear
7:13 AM -17.5 °F - -23.1 °F 76% 30.24 in 10.0 mi Calm Calm - N/A   Clear
7:33 AM -17.1 °F - -23.1 °F 74% 30.24 in 10.0 mi Calm Calm - N/A   Clear
7:53 AM -16.8 °F - -22.9 °F 74% 30.23 in 10.0 mi Calm Calm - N/A   Clear
8:13 AM -15.9 °F - -22.0 °F 74% 30.22 in 10.0 mi Calm Calm - N/A   Clear
8:33 AM -15.5 °F - -21.3 °F 75% 30.21 in 10.0 mi Calm Calm - N/A   Clear
8:53 AM -14.3 °F - -20.9 °F 72% 30.21 in 10.0 mi Calm Calm - N/A   Clear
9:13 AM -13.2 °F - -20.4 °F 70% 30.21 in 10.0 mi Calm Calm - N/A   Clear
9:33 AM -12.3 °F - -19.7 °F 70% 30.20 in 10.0 mi Calm Calm - N/A   Clear
10:13 AM -10.3 °F - -18.6 °F 67% 30.19 in 10.0 mi Calm Calm - N/A   Clear
10:33 AM -9.6 °F - -18.6 °F 65% 30.19 in 10.0 mi Calm Calm - N/A   Clear
10:53 AM -8.5 °F - -18.0 °F 63% 30.20 in 10.0 mi Calm Calm - N/A   Clear
11:13 AM -8.0 °F -19.2 °F -17.7 °F 63% 30.20 in 10.0 mi South 4.6 mph - N/A   Clear
11:33 AM -7.6 °F -23.4 °F -16.8 °F 64% 30.19 in 10.0 mi South 8.1 mph - N/A   Scattered Clouds
12:13 PM -6.2 °F -18.9 °F -15.5 °F 64% 30.16 in 10.0 mi South 5.8 mph - N/A   Overcast
12:33 PM -5.1 °F -20.4 °F -14.6 °F 63% 30.15 in 10.0 mi SSW 8.1 mph - N/A   Overcast
12:54 PM -4.4 °F -19.5 °F -14.1 °F 63% 30.13 in 10.0 mi SSE 8.1 mph - N/A   Overcast
1:13 PM -4.5 °F -20.8 °F -13.5 °F 65% 30.13 in 10.0 mi SSE 9.2 mph - N/A   Overcast
1:33 PM -4.0 °F -20.2 °F -12.6 °F 66% 30.12 in 7.0 mi SSE 9.2 mph - N/A Snow Light Snow
1:54 PM -3.1 °F -16.7 °F -11.2 °F 68% 30.11 in 5.0 mi SE 6.9 mph - N/A Snow Light Snow
2:13 PM -2.6 °F -17.3 °F -10.5 °F 69% 30.09 in 7.0 mi SE 8.1 mph - N/A Snow Light Snow
2:33 PM -2.4 °F -18.2 °F -10.1 °F 70% 30.08 in 5.0 mi SSE 9.2 mph - N/A Snow Light Snow
2:53 PM -2.0 °F -15.4 °F -9.6 °F 70% 30.08 in 5.0 mi SSE 6.9 mph - N/A Snow Light Snow
3:13 PM -1.7 °F -14.9 °F -7.8 °F 75% 30.07 in 0.8 mi SE 6.9 mph - N/A Snow Light Snow
3:33 PM -1.1 °F -15.5 °F -7.1 °F 76% 30.06 in 1.8 mi SE 8.1 mph - N/A Snow Light Snow
4:13 PM -0.4 °F -14.7 °F -5.6 °F 79% 30.04 in 1.5 mi ESE 8.1 mph - N/A Snow Light Snow
4:33 PM -0.4 °F -13.4 °F -5.6 °F 79% 30.04 in 2.0 mi SE 6.9 mph - N/A Snow Light Snow
4:53 PM -0.4 °F -14.7 °F -5.8 °F 78% 30.04 in 2.0 mi SE 8.1 mph - N/A Snow Light Snow
5:13 PM -0.4 °F -14.7 °F -5.4 °F 79% 30.04 in 7.0 mi SE 8.1 mph - N/A Snow Light Snow
5:33 PM -0.0 °F -15.3 °F -5.3 °F 79% 30.03 in 7.0 mi ESE 9.2 mph - N/A Snow Light Snow
5:53 PM 0.1 °F -14.0 °F -4.9 °F 79% 30.01 in 4.0 mi ESE 8.1 mph - N/A Snow Light Snow
6:13 PM 0.3 °F -11.2 °F -4.5 °F 80% 30.02 in 3.0 mi ESE 5.8 mph - N/A Snow Light Snow
6:33 PM 0.5 °F - -4.2 °F 81% 30.03 in 3.0 mi Calm Calm - N/A Snow Light Snow
6:53 PM 0.5 °F -7.3 °F -4.2 °F 81% 30.04 in 3.0 mi East 3.5 mph - N/A Snow Light Snow
7:13 PM 0.5 °F -7.3 °F -4.0 °F 81% 30.04 in 5.0 mi East 3.5 mph - N/A Snow Light Snow
7:34 PM 0.9 °F -6.9 °F -4.0 °F 80% 30.03 in 4.0 mi East 3.5 mph - N/A Snow Light Snow
7:58 PM 0.9 °F -6.9 °F -3.6 °F 81% 30.02 in 5.0 mi East 3.5 mph - N/A Snow Light Snow
8:13 PM 0.5 °F -9.3 °F -4.0 °F 81% 30.02 in 7.0 mi East 4.6 mph - N/A Snow Light Snow
8:34 PM 0.5 °F -9.3 °F -4.0 °F 81% 30.02 in 4.0 mi East 4.6 mph - N/A Snow Light Snow
8:53 PM 0.3 °F -7.5 °F -4.2 °F 81% 30.02 in 7.0 mi ENE 3.5 mph - N/A Snow Light Snow
9:13 PM 0.5 °F -9.3 °F -4.0 °F 81% 30.02 in 7.0 mi NE 4.6 mph - N/A Snow Light Snow
9:34 PM 0.3 °F -11.2 °F -4.2 °F 81% 30.03 in 7.0 mi NE 5.8 mph - N/A Snow Light Snow
9:53 PM 0.1 °F -9.7 °F -4.2 °F 82% 30.02 in 7.0 mi ENE 4.6 mph - N/A Snow Light Snow
10:13 PM -0.0 °F -9.9 °F -4.2 °F 83% 30.03 in 5.0 mi NE 4.6 mph - N/A Snow Light Snow
10:33 PM -0.2 °F -10.1 °F -4.4 °F 83% 30.03 in 7.0 mi NE 4.6 mph - N/A Snow Light Snow
10:53 PM -0.2 °F -8.1 °F -4.4 °F 83% 30.03 in 10.0 mi NE 3.5 mph - N/A Snow Light Snow
11:13 PM -0.4 °F -8.3 °F -4.7 °F 82% 30.04 in 10.0 mi NNE 3.5 mph - N/A Snow Light Snow
11:33 PM -0.4 °F -8.3 °F -4.9 °F 81% 30.04 in 10.0 mi NNE 3.5 mph - N/A Snow Light Snow
11:53 PM -0.4 °F -8.3 °F -4.9 °F 81% 30.05 in 10.0 mi NNE 3.5 mph - N/A Snow Light Snow